DateTimeUTC,F1_A11,F1_S11,BsB_S11,BsG_S11,BsR_S11,BbsB_S11,BbsG_S11,BbsR_S11,BaB_A11,BaG_A11,BaR_A11,Tu_S11,T_S11,Uu_S11,U_S11,P_S11,T1_A11
2021-06-14T01:00:00Z,00000200,20000000,,,,,,,-000.10,0000.27,0000.12,16.9,23.8,03.7,02.4,0669.7,30.9
2021-06-14T01:01:00Z,00000200,20000000,,,,,,,0000.22,-000.11,0000.08,16.9,23.8,03.5,02.3,0669.7,30.9
2021-06-14T01:02:00Z,00000200,20000000,,,,,,,-000.16,-000.17,0000.11,16.9,23.8,03.4,02.2,0669.7,30.9
2021-06-14T01:03:00Z,00000200,60000000,,,,,,,0000.33,0000.27,-000.36,16.9,23.8,03.4,02.2,0669.7,30.9
2021-06-14T01:04:00Z,00000200,40000000,0000.86,0000.76,0000.08,0000.22,0000.13,0000.14,0000.02,0000.08,0000.51,17.0,23.6,03.6,02.4,0670.6,30.9
2021-06-14T01:05:00Z,00000200,00000000,0001.76,0000.08,-000.07,0000.03,-000.21,0000.07,0000.49,0000.39,0000.25,17.1,23.6,03.7,02.5,0670.7,30.9
2021-06-14T01:06:00Z,00000200,00000000,0001.05,0000.41,0000.32,0000.39,-000.05,0000.20,0000.14,0000.20,-000.04,17.1,23.6,03.7,02.5,0670.7,30.9
2021-06-14T01:07:00Z,00000200,00000000,0000.68,0000.36,0000.18,0000.09,-000.05,0000.24,0000.36,0000.40,0000.27,17.1,23.6,03.7,02.5,0670.7,30.9
2021-06-14T01:08:00Z,00000200,00000000,0000.83,0000.50,0000.47,0000.16,-000.14,0000.38,0000.43,0000.31,0000.01,17.1,23.5,03.6,02.4,0670.7,30.9
2021-06-14T01:09:00Z,00000200,00000000,0000.94,0000.44,0000.12,0000.37,-000.37,0000.02,-000.20,-000.03,0000.45,17.1,23.5,03.7,02.4,0670.7,30.9
2021-06-14T01:10:00Z,00000200,00000000,0001.57,0000.30,0000.19,0000.10,-000.19,0000.12,0000.36,0000.50,0000.25,17.1,23.6,03.6,02.4,0670.7,30.9
2021-06-14T01:11:00Z,00000200,00000000,0000.63,0000.55,0000.31,0000.16,-000.05,0000.39,0000.47,0000.30,-000.01,17.1,23.6,03.5,02.4,0670.7,30.9
2021-06-14T01:12:00Z,00000200,00000000,0000.94,0000.40,0000.04,0000.07,-000.17,0000.03,0000.09,0000.20,0000.08,17.1,23.6,03.6,02.4,0670.7,30.9
2021-06-14T01:13:00Z,00000200,00000000,0000.41,0000.23,0000.36,0000.17,0000.24,0000.37,0000.12,0000.07,0000.11,17.1,23.6,03.6,02.4,0670.7,30.9
2021-06-14T01:14:00Z,00000200,00000000,0000.61,0000.29,0000.20,0000.30,0000.25,0000.26,0000.02,0000.10,0000.35,17.1,23.6,03.6,02.4,0670.7,30.9
2021-06-14T01:15:00Z,00000200,00000000,0001.23,0000.16,0000.06,-000.37,0000.01,0000.04,0000.33,0000.08,-000.01,17.1,23.6,03.5,02.4,0670.7,30.9
2021-06-14T01:16:00Z,00000200,00000000,0000.75,0000.34,0000.04,-000.03,-000.18,-000.12,0000.27,0000.44,0000.08,17.1,23.6,03.5,02.4,0670.7,30.9
2021-06-14T01:17:00Z,00000200,00000000,0000.64,0000.64,0000.19,0000.38,-000.07,0000.14,-000.20,0000.08,0000.55,17.1,23.6,03.5,02.4,0670.8,30.9
2021-06-14T01:18:00Z,00000200,00000000,0000.61,0000.54,0000.10,-000.12,0000.07,0000.06,0000.59,0000.25,-000.14,17.1,23.6,03.5,02.4,0670.8,30.9
2021-06-14T01:19:00Z,00000200,00000000,0000.73,0000.35,-000.04,0000.38,-000.16,-000.03,0000.13,-000.36,0000.36,17.1,23.6,03.6,02.4,0670.8,30.9
2021-06-14T01:20:00Z,00000200,00000000,0001.11,0000.46,0000.09,0000.22,0000.08,0000.31,-000.01,0000.50,0000.07,17.1,23.6,03.6,02.4,0670.8,30.9
2021-06-14T01:21:00Z,00000200,00000000,0000.98,0000.64,0000.25,0000.17,0000.03,0000.15,0000.74,0000.40,-000.10,17.1,23.5,03.5,02.3,0670.7,30.9
2021-06-14T01:22:00Z,00000200,00000000,0000.95,0000.28,0000.01,0000.14,0000.03,0000.04,0000.17,-000.23,0000.56,17.1,23.5,03.5,02.4,0670.7,30.9
2021-06-14T01:23:00Z,00000200,00000000,0000.32,-000.00,0000.53,-000.23,-000.12,0000.39,0000.20,0000.39,-000.07,17.1,23.5,03.5,02.3,0670.7,30.9
2021-06-14T01:24:00Z,00000200,00000000,0001.05,0000.18,0000.39,0000.17,0000.11,0000.43,0000.20,0000.50,0000.13,17.1,23.5,03.6,02.4,0670.7,30.9
2021-06-14T01:25:00Z,00000200,00000000,0001.13,0000.53,0000.14,-000.06,0000.15,0000.15,0000.26,0000.10,0000.31,17.1,23.5,03.6,02.4,0670.7,30.9
2021-06-14T01:26:00Z,00000200,00000000,0001.41,0000.37,0000.15,0000.12,-000.18,0000.38,0000.11,0000.29,0000.07,17.1,23.5,03.5,02.4,0670.7,30.9
2021-06-14T01:27:00Z,00000200,00000000,0001.34,0000.46,0000.30,-000.44,0000.15,0000.10,0000.11,0000.10,0000.39,17.1,23.5,03.6,02.4,0670.7,30.9
2021-06-14T01:28:00Z,00000200,00000000,0001.10,0000.59,-000.17,-000.24,-000.03,0000.16,0000.23,0000.30,0000.25,17.1,23.5,03.5,02.4,0670.7,30.9
2021-06-14T01:29:00Z,00000200,00000000,0000.56,0000.24,0000.10,0000.65,-000.03,0000.15,0000.60,0000.32,0000.05,17.1,23.5,03.6,02.4,0670.8,30.9
2021-06-14T01:30:00Z,00000200,00000000,0000.74,0000.27,0000.20,0000.03,0000.09,0000.34,0000.08,0000.18,0000.08,17.1,23.5,03.5,02.4,0670.8,30.9
2021-06-14T01:31:00Z,00000200,00000000,0001.39,0000.49,0000.32,0000.18,0000.04,0000.20,0000.05,0000.07,0000.21,17.1,23.5,03.6,02.4,0670.8,30.9
2021-06-14T01:32:00Z,00000200,00000000,0000.71,0000.53,0000.47,0000.53,-000.12,0000.19,0000.14,-000.23,-000.17,17.1,23.5,03.5,02.3,0670.8,30.9
2021-06-14T01:33:00Z,00000200,00000000,0000.90,0000.58,0000.03,0000.40,0000.01,0000.27,0000.11,0000.53,0000.29,17.1,23.5,03.5,02.3,0670.8,30.9
2021-06-14T01:34:00Z,00000200,00000000,0001.14,0000.40,0000.09,0000.01,0000.21,0000.27,0000.13,-000.09,0000.15,17.1,23.5,03.4,02.3,0670.8,30.9
2021-06-14T01:35:00Z,00000200,00000000,0001.41,0000.53,0000.43,0000.41,0000.01,0000.36,0000.29,0000.55,-000.03,17.1,23.5,03.4,02.3,0670.8,30.9
2021-06-14T01:36:00Z,00000200,00000000,0001.09,0000.42,-000.04,0000.88,-000.24,0000.09,-000.09,-000.20,0000.11,17.1,23.5,03.3,02.2,0670.8,30.9
2021-06-14T01:37:00Z,00000200,00000000,0001.08,0000.09,0000.10,0000.24,0000.06,0000.23,0000.16,0000.11,0000.03,17.1,23.5,03.2,02.2,0670.8,30.9
2021-06-14T01:38:00Z,00000200,00000000,0001.18,0000.39,0000.22,-000.35,-000.06,-000.03,0000.36,0000.06,0000.22,17.1,23.5,03.1,02.1,0670.8,30.9
2021-06-14T01:39:00Z,00000200,00000000,0001.13,0000.64,0000.36,-000.04,0000.05,0000.23,-000.24,0000.20,0000.27,17.1,23.5,03.1,02.1,0670.8,30.9
2021-06-14T01:40:00Z,00000200,00000000,0001.39,0000.40,0000.20,-000.03,-000.31,-000.14,0000.07,-000.30,-000.10,17.0,23.4,03.1,02.1,0670.8,30.9
2021-06-14T01:41:00Z,00000200,00000000,0001.12,0000.50,0000.00,0000.15,-000.09,-000.18,0000.12,0000.27,-000.25,17.0,23.4,03.1,02.1,0670.9,30.9
2021-06-14T01:42:00Z,00000200,00000000,0001.27,0000.45,0000.07,0000.42,0000.19,0000.03,0000.06,0000.07,0000.23,17.0,23.5,02.9,02.0,0670.8,30.9
2021-06-14T01:43:00Z,00000200,00000000,0001.71,0000.57,0000.29,0000.01,0000.21,0000.11,0000.10,0000.08,-000.04,17.0,23.4,02.8,01.9,0670.9,30.9
2021-06-14T01:44:00Z,00000200,00000000,0001.00,0000.41,0000.16,0000.28,-000.09,0000.10,0000.15,-000.28,-000.20,17.0,23.5,02.8,01.9,0670.9,30.9
2021-06-14T01:45:00Z,00000200,00000000,0000.74,0000.37,0000.03,0000.17,-000.26,0000.12,-000.09,0000.27,0000.06,17.0,23.4,02.8,01.8,0670.9,30.9
2021-06-14T01:46:00Z,00000200,00000000,0000.74,0000.47,0000.31,-000.03,0000.18,0000.22,-000.23,0000.15,0000.10,17.0,23.4,02.7,01.8,0670.9,30.9
2021-06-14T01:47:00Z,00000200,00000000,0000.36,0000.20,-000.04,0000.03,-000.17,0000.26,0000.45,-000.21,0000.26,17.0,23.4,02.7,01.8,0670.9,30.9
2021-06-14T01:48:00Z,00000200,00000000,0001.28,0000.27,0000.16,-000.46,0000.03,0000.09,0000.10,0000.25,0000.00,17.0,23.4,02.5,01.6,0670.9,30.9
2021-06-14T01:49:00Z,00000200,00000000,0001.69,0000.41,0000.03,0000.69,-000.16,-000.01,0000.17,0000.05,0000.36,17.0,23.4,02.6,01.7,0670.9,30.9
2021-06-14T01:50:00Z,00000200,00000000,0001.47,0000.51,0000.57,0000.24,-000.04,0000.41,0000.46,-000.05,-000.00,17.0,23.4,02.6,01.7,0670.9,30.9
2021-06-14T01:51:00Z,00000200,00000000,0001.22,0000.20,0000.22,0000.28,-000.09,-000.14,-000.05,0000.65,0000.15,17.0,23.4,02.5,01.7,0670.9,30.9
2021-06-14T01:52:00Z,00000200,00000000,0000.42,0000.13,-000.04,0000.41,0000.00,0000.08,-000.31,-000.04,-000.40,16.9,23.4,02.5,01.7,0670.9,30.9
2021-06-14T01:53:00Z,00000200,00000000,0000.61,0000.55,0000.02,0000.31,-000.23,0000.08,0000.39,-000.20,0000.31,16.9,23.4,02.5,01.6,0670.9,30.9
2021-06-14T01:54:00Z,00000200,00000000,0001.10,0000.36,0000.30,0000.28,-000.11,0000.21,-000.01,0000.28,0000.22,17.0,23.4,02.4,01.6,0670.9,30.9
2021-06-14T01:55:00Z,00000200,00000000,0000.97,0000.66,0000.24,-000.25,0000.34,0000.20,0000.34,0000.56,0000.30,17.0,23.5,02.3,01.6,0670.9,30.9
2021-06-14T01:56:00Z,00000200,00000000,0001.84,0000.27,0000.16,0000.46,-000.14,-000.29,-000.17,-000.39,0000.05,17.1,23.5,02.4,01.6,0670.9,31.0
2021-06-14T01:57:00Z,00000200,40000000,,,,,,,0001.24,0001.37,0000.78,17.2,23.6,03.1,02.1,0671.0,31.0
2021-06-14T01:58:00Z,00000200,60000000,,,,,,,-000.52,-000.54,-000.39,16.9,23.7,02.6,01.7,0670.0,31.0
2021-06-14T01:59:00Z,00000200,20000000,,,,,,,0000.12,-000.35,-000.19,16.9,23.8,02.3,01.5,0669.9,31.0
